EW1160 Weather Reports


Display with metric or nautical units.
time (UTC)temp
F
wind
direction
speed
MPH
gust
MPH
rain 1hr
in
rain 24hr
in
rain mn
in
humidity
%
barometer
mb
20260504224539 73 177 0.0 0.0 0.00 0.00 0.00 45 996.6
20260504223014 72 181 0.0 0.0 0.00 0.00 0.00 46 996.9
20260504221513 72 154 0.0 0.0 0.00 0.00 0.00 45 997.0
20260504220002 73 149 0.0 0.0 0.00 0.00 0.00 45 997.0
20260504214501 73 160 0.0 0.0 0.00 0.00 0.00 45 997.0
20260504213103 73 154 0.0 0.0 0.00 0.00 0.00 44 997.1
20260504211559 73 189 0.0 0.0 0.00 0.00 0.00 45 997.1
20260504210059 73 191 0.0 0.0 0.00 0.00 0.00 46 997.2
20260504204556 72 174 0.0 0.0 0.00 0.00 0.00 46 997.3
20260504203056 73 171 0.0 0.0 0.00 0.00 0.00 46 997.4
20260504201555 72 186 0.0 0.0 0.00 0.00 0.00 47 997.5
20260504200052 72 210 0.0 0.0 0.00 0.00 0.00 47 997.7
20260504194533 72 162 0.0 0.0 0.00 0.00 0.00 48 997.7
20260504193036 72 172 0.0 0.0 0.00 0.00 0.00 46 997.8
20260504191512 72 171 0.0 0.0 0.00 0.00 0.00 46 998.0
20260504190018 72 194 0.0 0.0 0.00 0.00 0.00 46 998.1
20260504184602 72 158 0.0 0.0 0.00 0.00 0.00 46 998.2
20260504183052 72 150 0.0 0.0 0.00 0.00 0.00 44 998.4
20260504181533 71 210 0.0 0.0 0.00 0.00 0.00 46 998.5
20260504180034 70 199 0.0 0.0 0.00 0.00 0.00 47 998.7
20260504174511 70 186 0.0 0.0 0.00 0.00 0.00 47 999.0
20260504173014 70 175 0.0 0.0 0.00 0.00 0.00 49 999.1
20260504171549 69 178 0.0 0.0 0.00 0.00 0.00 50 999.4
20260504081531 49 193 0.0 0.0 0.00 0.00 0.00 78 1002.4
20260504044556 51 185 0.0 0.0 0.00 0.00 0.00 70 1004.9
20260504043054 52 192 0.0 0.0 0.00 0.00 0.00 68 1005.1
20260504041533 52 158 0.0 0.0 0.00 0.00 0.00 67 1005.1
20260504040031 53 191 0.0 0.0 0.00 0.00 0.00 66 1005.3
20260504034518 53 179 0.0 0.0 0.00 0.00 0.00 65 1005.5
20260504033011 54 199 0.0 0.0 0.00 0.00 0.00 63 1005.5
20260504031605 54 174 0.0 0.0 0.00 0.00 0.00 62 1005.6
20260504030112 55 187 0.0 0.0 0.00 0.00 0.00 60 1005.7
20260504024542 55 170 0.0 0.0 0.00 0.00 0.00 58 1005.9
20260504023036 56 207 0.0 0.0 0.00 0.00 0.00 55 1006.0
20260504021519 57 212 0.0 0.0 0.00 0.00 0.00 54 1006.0
20260504020019 58 202 0.0 0.0 0.00 0.00 0.00 52 1006.0
20260504014559 58 212 0.0 0.0 0.00 0.00 0.00 51 1005.8
20260504013059 58 222 0.0 0.0 0.00 0.00 0.00 51 1005.7
20260504011542 57 181 0.0 0.0 0.00 0.00 0.00 52 1005.7
20260504010043 58 176 0.0 0.0 0.00 0.00 0.00 51 1005.5
20260504004531 59 184 0.0 0.0 0.00 0.00 0.00 49 1005.3
20260504003039 59 215 0.0 0.0 0.00 0.00 0.00 48 1005.1
20260504001530 59 207 0.0 0.0 0.00 0.00 0.00 46 1005.0
20260504000029 60 212 0.0 0.0 0.00 0.00 0.00 45 1005.0
20260503234529 60 204 0.0 0.0 0.00 0.00 0.00 45 1004.9
20260503233035 60 188 0.0 0.0 0.00 0.00 0.00 45 1005.1
20260503231527 60 201 0.0 0.0 0.00 0.00 0.00 45 1005.1
20260503230026 61 212 0.0 0.0 0.00 0.00 0.00 44 1005.3